Tracking 30109 objects as of 12-Dec-2024
HD Live streaming from Space Station
objects crossing your sky now

STARLINK-5591

Track STARLINK-5591 now!
10-day predictions
STARLINK-5591 is classified as:


NORAD ID: 55771
Int'l Code: 2023-028AG
Perigee: 577.3 km
Apogee: 581.1 km
Inclination: 70.0 °
Period: 96.1 minutes
Semi major axis: 6950 km
RCS: Unknown
Launch date: March 3, 2023
Source: United States (US)
Launch site: AIR FORCE WESTERN TEST RANGE (AFWTR)
Your satellite tracking list
Your tracking list is empty




NASA's NSSDC Master Catalog

Two Line Element Set (TLE):
1 55771U 23028AG  24346.59028413  .00000530  00000-0  52167-4 0  9994
2 55771  69.9997 286.8569 0002764 270.1970  89.8873 14.98330362 98666
Source of the keplerian elements: AFSPC